TimeCST,TemperatureF,Dew PointF,Humidity,Sea Level PressureIn,VisibilityMPH,Wind Direction,Wind SpeedMPH,Gust SpeedMPH,PrecipitationIn,Events,Conditions,WindDirDegrees,DateUTC
12:53 AM,72.0,68.0,87,29.86,10.0,South,6.9,-,N/A,,Clear,170,2012-12-09 06:53:00
1:53 AM,72.0,68.0,87,29.86,10.0,South,8.1,-,N/A,,Clear,170,2012-12-09 07:53:00
2:53 AM,71.1,68.0,90,29.85,10.0,SSE,5.8,-,N/A,,Clear,160,2012-12-09 08:53:00
3:53 AM,70.0,66.9,90,29.85,9.0,SSE,4.6,-,0.01,,Clear,160,2012-12-09 09:53:00
4:53 AM,68.0,66.0,93,29.85,8.0,SE,3.5,-,N/A,,Clear,140,2012-12-09 10:53:00
5:26 AM,68.0,66.2,94,29.86,2.5,Calm,Calm,-,N/A,,Mostly Cloudy,0,2012-12-09 11:26:00
5:33 AM,68.0,66.2,94,29.86,6.0,Calm,Calm,-,N/A,,Mostly Cloudy,0,2012-12-09 11:33:00
5:53 AM,66.9,64.9,93,29.87,2.5,Calm,Calm,-,N/A,,Mostly Cloudy,0,2012-12-09 11:53:00
6:05 AM,66.2,64.4,94,29.87,0.8,Calm,Calm,-,N/A,,Overcast,0,2012-12-09 12:05:00
6:18 AM,66.2,64.4,94,29.87,2.5,Calm,Calm,-,N/A,,Overcast,0,2012-12-09 12:18:00
6:25 AM,66.2,64.4,94,29.88,6.0,Calm,Calm,-,N/A,,Overcast,0,2012-12-09 12:25:00
6:53 AM,69.1,66.0,90,29.88,7.0,ESE,4.6,-,N/A,,Overcast,110,2012-12-09 12:53:00
7:28 AM,69.8,66.2,88,29.90,8.0,Calm,Calm,-,N/A,,Overcast,0,2012-12-09 13:28:00
7:43 AM,69.8,66.2,88,29.90,7.0,SE,3.5,-,N/A,,Overcast,130,2012-12-09 13:43:00
7:53 AM,70.0,66.9,90,29.90,7.0,SE,4.6,-,N/A,,Mostly Cloudy,130,2012-12-09 13:53:00
8:53 AM,73.9,71.1,91,29.91,6.0,SSE,9.2,-,N/A,,Overcast,160,2012-12-09 14:53:00
9:53 AM,75.9,71.1,85,29.92,6.0,South,11.5,-,N/A,,Haze,170,2012-12-09 15:53:00
10:53 AM,78.1,71.1,79,29.91,7.0,South,10.4,-,N/A,,Mostly Cloudy,180,2012-12-09 16:53:00
11:53 AM,78.1,71.1,79,29.89,7.0,South,13.8,-,N/A,,Mostly Cloudy,170,2012-12-09 17:53:00
12:53 PM,80.1,71.1,74,29.85,8.0,South,15.0,-,N/A,,Scattered Clouds,180,2012-12-09 18:53:00
1:53 PM,78.1,71.1,79,29.83,7.0,South,16.1,21.9,N/A,,Clear,180,2012-12-09 19:53:00
2:53 PM,78.1,71.1,79,29.82,8.0,South,15.0,-,N/A,,Clear,170,2012-12-09 20:53:00
3:53 PM,77.0,70.0,79,29.81,10.0,South,12.7,-,N/A,,Clear,170,2012-12-09 21:53:00
4:53 PM,75.9,70.0,82,29.81,10.0,South,11.5,-,N/A,,Clear,170,2012-12-09 22:53:00
5:53 PM,75.0,69.1,82,29.81,10.0,SSE,8.1,-,N/A,,Mostly Cloudy,160,2012-12-09 23:53:00
7:53 PM,75.0,70.0,84,29.82,10.0,SSE,8.1,-,N/A,,Scattered Clouds,160,2012-12-10 01:53:00
8:27 PM,75.2,69.8,83,29.83,10.0,North,-9999.0,-,N/A,,Partly Cloudy,0,2012-12-10 02:27:00
8:53 PM,75.0,70.0,84,29.82,10.0,South,8.1,-,N/A,,Clear,170,2012-12-10 02:53:00
9:53 PM,75.0,70.0,84,29.81,10.0,North,-9999.0,-,N/A,,Clear,0,2012-12-10 03:53:00
10:53 PM,75.0,71.1,87,29.82,10.0,South,10.4,19.6,N/A,,Clear,180,2012-12-10 04:53:00
11:53 PM,75.0,71.1,87,29.83,9.0,SSW,8.1,-,N/A,,Overcast,200,2012-12-10 05:53:00